Regional Weather Roundup
Issued by NWS

Home | Current Version | Previous Version | Graphics & Text | Print | Product List | Glossary Off
Versions: 1 2 3 4 5 6 7 8 9 10 11 12 13 14 15 16 17 18 19 20 21 22 23 24 25 26 27 28 29 30 31 32 33 34 35 36 37 38 39 40 41 42 43 44 45 46 47 48 49 50

027
ASUS43 KMPX 202010
RWRMN
WEATHER ROUNDUP FOR MINNESOTA
NATIONAL WEATHER SERVICE TWIN CITIES/CHANHASSEN MN
300 PM CDT FRI OCT 20 2017


NOTE: "FAIR" INDICATES FEW OR NO CLOUDS BELOW 12,000 FEET WITH NO
SIGNIFICANT WEATHER AND/OR OBSTRUCTIONS TO VISIBILITY. N/A MEANS
CURRENT SKY AND/OR WEATHER CONDITIONS ARE NOT AVAILABLE.

MNZ060>063-068>070-202100-
   Twin Cities Metro

CITY           SKY/WX    TMP DP  RH WIND       PRES   REMARKS
TWIN CITIES    MOSUNNY   77  49  37 S24G31    29.77F
ST PAUL        MOSUNNY   76  51  41 S14G24    29.78F
CRYSTAL        CLOUDY    78  49  35 S16G26    29.75F
BLAINE         PTSUNNY   77  52  41 S17G28    29.76F
LAKEVILLE      MOSUNNY   75  50  41 S20G28    29.78F
EDEN PRAIRIE   MOSUNNY   78  50  37 S23G31    29.75F
SOUTH ST PAUL  MOSUNNY   77  46  33 S15G23    29.78F
LAKE ELMO      FAIR      75  52  43 S16G25    29.80F
$$
MNZ001>005-007-008-013>017-022>024-027-028-202100-
   Northwest Minnesota

CITY           SKY/WX    TMP DP  RH WIND       PRES   REMARKS
BEMIDJI        SUNNY     75  50  40 S14G24    29.57F
HALLOCK        SUNNY     79  48  34 S23G35    29.40F
ROSEAU         SUNNY     81  54  39 S20G25    29.46F
WARROAD        SUNNY     79  54  41 S15       29.49F
THIEF RVR FALL SUNNY     79  51  37 S30G38    29.47F
CROOKSTON      SUNNY     77  52  41 S30G38    29.44F
FOSSTON        SUNNY     79  46  31 S28G35    29.51F
DETROIT LAKES  SUNNY     72  52  49 S23       29.55F
MOORHEAD       SUNNY     73  52  46 S28G36    29.49S
PARK RAPIDS    SUNNY     74  52  46 S20G32    29.60F
MAHNOMEN       FAIR      76  52  43 S23G33    29.50F
$$
MNZ006-009>011-018-025>026-202100-
   North Central Minnesota

CITY           SKY/WX    TMP DP  RH WIND       PRES   REMARKS
BAUDETTE       SUNNY     78  46  32 S21G32    29.53F
FLAG ISLAND    SUNNY     66  48  52 SE10      29.49F
INTL FALLS     SUNNY     77  45  32 S9G21     29.60F
WASKISH        SUNNY     77  48  36 SE14G24   29.56F
BIG FORK       SUNNY     73  48  40 S10G18    29.64F
LONGVILLE      SUNNY     73  48  40 S18G24    29.65F
GRAND RAPIDS   SUNNY     73  50  44 S16G31    29.69F
CRANE LAKE     SUNNY     75  45  33 S13G21    29.67F
ORR            SUNNY     75  43  31 S12G25    29.64F
COOK           SUNNY     75  46  35 S17       29.68F
WALKER         FAIR      74  49  40 S22G28    29.61F
$$
MNZ012-019>021-037-202100-
   Northeast Minnesota

CITY           SKY/WX    TMP DP  RH WIND       PRES   REMARKS
DULUTH         CLOUDY    74  49  41 S18G26    29.74F
ELY            SUNNY     75  41  29 S17       29.71F
HIBBING        SUNNY     73  48  41 S14G22    29.70F
EVELETH          N/A    N/A N/A N/A S18G29      N/A
DULUTH HARBOR  MOSUNNY   59  55  88 N10       29.74F
TWO HARBORS    SUNNY     73  55  53 SE6       29.74F
SILVER BAY     SUNNY     72  52  49 S6        29.75F
GRAND MARAIS     N/A     59  48  67 E3        29.78F
G MARAIS ARPRT SUNNY     63  45  51 S7        29.81F
$$
MNZ029>031-032-039>041-046>048-054>057-064-202100-
   West Central Minnesota

CITY           SKY/WX    TMP DP  RH WIND       PRES   REMARKS
FERGUS FALLS   SUNNY     73  54  49 S25G33    29.54F
WHEATON        MOSUNNY   75  50  41 SE23G32   29.54F
MORRIS         SUNNY     77  54  44 S24G32    29.58F
ALEXANDRIA     SUNNY     73  52  47 S21G36    29.64F
ELBOW LAKE     FAIR      73  55  52 SE20G30   29.57F
WADENA         SUNNY     73  54  49 S20G29    29.61F
GLENWOOD       SUNNY     75  54  46 S24G33    29.65F
APPLETON       SUNNY     79  52  38 S15G23    29.59F
BENSON         SUNNY     77  52  41 S20G28    29.62F
ORTONVILLE     SUNNY     75  54  46 N18G26    29.57F
MADISON        SUNNY     79  55  44 S23G30    29.59F
WILLMAR        FAIR      81  54  39 S15G29    29.67F
$$
MNZ033>034-036-042>043-049>051-058-059-202100-
   Central Minnesota

CITY           SKY/WX    TMP DP  RH WIND       PRES   REMARKS
ST CLOUD       SUNNY     76  52  43 S21G32    29.70F
SAUK CENTRE    FAIR      75  52  44 S23G35    29.66F
PAYNESVILLE    MOSUNNY   76  52  42 SE20G28   29.68F
AITKIN         SUNNY     72  48  43 S21G26    29.67F
PINE RIVER     SUNNY     72  52  49 S20G25    29.68F
BRAINERD       MOSUNNY   73  51  46 S22G29    29.68F
STAPLES        SUNNY     73  48  40 S18G28    29.64F
LONG PRAIRIE   FAIR      72  52  49 SE15G26   29.66F
LITTLE FALLS   SUNNY     73  41  31 S18G25    29.68F
LITCHFIELD     SUNNY     77  54  44 S10G20    29.70F
BUFFALO        MOSUNNY   76  49  37 S12G23    29.74F
MAPLE LAKE     MOSUNNY   77  53  43 S18G26    29.73F
HUTCHINSON     SUNNY     77  55  47 S14G22    29.72F
$$
MNZ037-044-045-052-053-202100-
   East Central Minnesota

CITY           SKY/WX    TMP DP  RH WIND       PRES   REMARKS
PRINCETON      SUNNY     79  50  36 S17G25    29.73F
MORA           SUNNY     73  46  38 S16G24    29.75F
CAMBRIDGE      SUNNY     81  55  41 S21G32    29.74F
RUSH CITY      SUNNY     77  47  34 S18G29    29.75F
MOOSE LAKE     SUNNY     73  50  43 S14G26    29.72F
HINCKLEY       FAIR      77  50  38 S16G24    29.75F
CLOQUET        SUNNY     73  45  35 S17       29.74F
MCGREGOR       MOSUNNY   73  50  43 S17G23    29.71F
$$
MNZ071>073-080-081-089-090-097-098-202100-
   Southwest Minnesota

CITY           SKY/WX    TMP DP  RH WIND       PRES   REMARKS
MONTEVIDEO     SUNNY     79  54  41 SW22G29   29.62F
GRANITE FALLS  SUNNY     79  55  43 S26G37    29.65F
CANBY          SUNNY     76  53  45 S17G31    29.61F
MARSHALL       SUNNY     78  54  43 S29G41    29.62F
REDWOOD FALLS  SUNNY     79  50  36 S31G39    29.67F
OLIVIA         SUNNY     77  54  44 S20G29    29.67F
PIPESTONE      SUNNY     73  52  46 S24G30    29.66F
WORTHINGTON    SUNNY     76  53  44 S24G33    29.71F
JACKSON        SUNNY     73  50  43 S25G33    29.75F
TRACY          SUNNY     77  56  48 S23G33    29.66F
SLAYTON        SUNNY     76  53  45 S24G32    29.69F
$$
MNZ065>067-074>077-082>085-091>093-202100-
   South Central Minnesota

CITY           SKY/WX    TMP DP  RH WIND       PRES   REMARKS
MANKATO        MOSUNNY   78  50  37 S22G29    29.76F
NEW ULM        SUNNY     75  50  41 S23G33    29.72F
ST JAMES       SUNNY     77  48  36 S25G35    29.74F
FAIRMONT       MOSUNNY   76  52  43 S28G37    29.75
GLENCOE        SUNNY     78  51  38 S15G26    29.73F
FARIBAULT      CLOUDY    75  48  38 S21G26    29.81F
OWATONNA       MOSUNNY   75  50  41 S20G29    29.81F
WASECA         MOSUNNY   77  48  36 S20G29    29.81F
$$
MNZ078>079-086>088-094>096-202100-
   Southeast Minnesota

CITY           SKY/WX    TMP DP  RH WIND       PRES   REMARKS
ROCHESTER      MOSUNNY   74  46  36 S20G30    29.86F
RED WING       MOSUNNY   77  37  24 S18G25    29.81F
STANTON        PTSUNNY   78  46  31 S15G25    29.79F
DODGE CENTER   MOSUNNY   73  43  33 S20G31    29.84F
WINONA         MOSUNNY   77  45  31 S9        29.87F
AUSTIN         MOSUNNY   73  45  35 S22G30    29.85F
PRESTON        SUNNY     74  44  33 S16G26    29.89F
$$
ABBREVIATIONS USED IN REMARKS
   TC - TEMPERATURES IN CELSIUS
  WCI - WIND CHILL INDEX
   HX - HEAT INDEX
  VSB - VISIBILITY
$$




USA.gov is the U.S. government's official web portal to all federal, state and local government web resources and services.